Regional Weather Roundup
Issued by NWS

Home | Current Version | Previous Version | Graphics & Text | Print | Product List | Glossary On
Versions: 1 2 3 4 5 6 7 8 9 10 11 12 13 14 15 16 17 18 19 20 21 22 23 24 25 26 27 28 29 30 31 32 33 34 35 36 37 38 39 40 41 42 43 44 45 46 47 48 49 50
000
ASUS44 KMEG 292100
RWRTN
TENNESSEE HOURLY STATE WEATHER ROUNDUP
NATIONAL WEATHER SERVICE MEMPHIS TN
400 PM CDT TUE JUL 29 2014

TNZ002-004-019-021-049-052-054-088>092-292200-
WEST TENNESSEE

CITY           SKY/WX    TMP DP  RH WIND       PRES   REMARKS
MEMPHIS INTL   MOSUNNY   81  56  42 N12       30.12S
NWS MEMPHIS      N/A     78 N/A N/A MISG        N/A
JACKSON        MOSUNNY   77  53  43 N7        30.12S
DYERSBURG      MOSUNNY   77  52  41 N10       30.13F
UNION CITY     MOSUNNY   75  52  43 VRB6      30.12S
PARIS          MOSUNNY   75  54  46 N5        30.13S
SAVANNAH       MOSUNNY   77  55  47 N9        30.11S
$$

TNZ008-025-027-028-033-062-065-066-292200-
NORTH MIDDLE TENNESSEE

CITY           SKY/WX    TMP DP  RH WIND       PRES   REMARKS
NASHVILLE      PTSUNNY   81  52  36 N13       30.08F
CLARKSVILLE    PTSUNNY   81  49  32 N13       30.09S
COOKEVILLE     SUNNY     75  57  53 N8        30.09S
CROSSVILLE     SUNNY     71  51  49 N13G20    30.10F
$$

TNZ061-075-076-078-094-096-097-292200-
SOUTH MIDDLE TENNESSEE

CITY           SKY/WX    TMP DP  RH WIND       PRES   REMARKS
WINCHESTER     MOSUNNY   73  52  46 N9        30.08F
SHELBYVILLE    MOSUNNY   75  55  50 N14       30.09F
$$

TNZ017-018-042-046-047-292200-
NORTHEAST TENNESSEE

CITY           SKY/WX    TMP DP  RH WIND       PRES   REMARKS
TRI CITIES     PTSUNNY   75  53  46 W13       30.02R
ELIZABETHTON   PTCLDY    73  52  46 VRB5        N/A
$$

TNZ012-013-036-069-073-074-292200-
CENTRAL EAST TENNESSEE

CITY           SKY/WX    TMP DP  RH WIND       PRES   REMARKS
KNOXVILLE      MOSUNNY   75  54  47 W10       30.02R
OAK RIDGE      SUNNY     78  49  35 MISG      30.05R
GATLINBURG     CLEAR     75  54  46 NW9       30.01S
$$

TNZ083-085-099-292200-
SOUTHEAST TENNESSEE

CITY           SKY/WX    TMP DP  RH WIND       PRES   REMARKS
CHATTANOOGA    MOSUNNY   80  51  36 N16       30.04R
$$

SKY/WX REPORTED AS FAIR MEANS FEW OR NO CLOUDS BELOW
12 THOUSAND FEET.




USA.gov is the U.S. government's official web portal to all federal, state and local government web resources and services.